RH
16 13 13 14 19 27 26 23 20 20 19 25 30 34 40 97 100 100 97 100 100 100 100 100 100 100 91 57 49 56 58 64 65 62 59 52 50 45 44 43 39 39 38 32 27 25 25 27 30
20 14 14 15 20 33 25 19 20 16 16 17 26 29 30 75 100 100 100 100 100 100 100 100 100 100 94 60 52 61 64 70 71 71 67 64 59 54 48 49 46 46 42 37 33 26 25 25 26
23 18 15 17 20 37 19 15 15 18 19 17 23 32 32 38 95 100 100 100 100 100 100 100 100 100 94 73 54 58 69 73 76 74 70 71 68 62 54 50 49 47 46 41 36 32 31 28 26
27 22 19 20 24 19 15 13 18 21 20 18 21 32 40 44 62 99 100 100 100 100 100 100 100 100 100 93 61 54 65 76 79 81 69 72 74 65 60 56 55 54 49 48 43 40 36 34 34
29 26 23 27 32 24 14 14 17 24 21 18 18 22 27 42 47 73 100 100 100 100 100 100 100 100 99 84 75 61 59 75 78 73 75 75 79 77 67 65 64 61 58 52 51 48 49 43 37
31 29 29 32 34 19 15 16 16 17 22 20 18 20 27 46 66 58 75 100 100 100 100 100 100 100 96 84 98 79 61 64 76 81 74 81 83 85 80 92 100 91 69 60 58 56 56 54 46
44 36 37 36 30 22 23 19 19 16 16 16 18 19 21 33 53 76 70 100 100 100 100 100 100 91 91 91 100 100 84 64 66 78 73 83 100 86 78 81 100 100 92 82 79 80 77 72 65
52 38 37 46 42 35 24 23 21 20 17 12 22 18 21 34 43 63 74 92 100 100 100 100 100 98 82 78 84 96 84 75 68 74 76 79 97 100 100 92 79 100 100 100 95 99 97 94 99
46 36 42 63 60 48 32 23 22 19 19 16 23 26 20 23 40 53 60 75 98 100 100 100 100 98 100 87 78 78 69 66 72 69 72 77 80 100 100 100 100 92 99 100 98 87 80 81 98
48 43 62 83 85 57 34 25 25 18 23 21 23 30 22 23 42 51 66 70 81 100 100 100 100 96 100 100 99 88 84 79 76 80 70 71 79 83 96 100 100 100 100 100 99 91 85 80 91
89 79 99 90 100 80 46 32 26 24 26 28 29 31 27 24 31 44 57 72 72 83 95 100 100 100 100 100 100 100 86 83 86 73 82 74 72 89 64 76 95 90 97 98 93 93 90 81 81
59 82 90 100 97 89 66 44 34 27 37 31 26 23 25 25 26 35 40 61 71 75 81 86 98 100 100 100 100 100 100 100 100 89 78 74 74 70 67 64 61 78 81 84 77 72 74 88 89
32 57 88 97 87 68 57 48 47 37 36 37 28 26 31 31 30 28 36 38 60 69 69 74 82 89 99 100 100 100 100 100 100 100 100 100 100 99 94 83 80 82 80 79 82 91 96 97 100
19 35 67 90 93 84 69 54 57 53 40 37 36 31 30 33 33 30 30 37 48 70 77 80 88 85 86 93 95 99 100 100 100 100 100 100 100 100 100 98 99 100 100 100 100 100 100 100 100
18 18 37 57 82 84 79 54 71 79 61 44 45 38 31 33 48 47 33 38 37 57 71 76 85 98 91 85 81 88 88 89 100 100 100 94 89 79 86 83 80 76 64 70 87 88 76 62 55
30 19 20 34 93 92 74 72 96 93 85 71 56 48 59 50 47 58 53 43 48 53 64 76 79 96 97 96 88 79 80 78 74 86 99 93 81 73 65 60 64 55 50 46 49 50 46 43 37
38 28 21 25 34 88 88 97 100 100 98 90 75 72 61 66 52 62 70 74 55 70 59 59 65 75 95 97 95 99 90 80 74 69 66 68 64 56 52 51 50 50 45 40 37 37 38 38 37
41 37 29 20 21 30 76 96 100 100 100 100 100 86 78 66 66 62 63 76 96 81 100 85 80 73 68 77 86 91 95 99 83 70 61 54 49 49 47 43 42 41 40 41 42 41 43 42 44
38 40 38 33 32 23 31 80 100 100 100 100 100 100 85 74 67 65 67 80 100 100 100 100 100 100 100 100 95 93 82 85 95 91 74 60 54 53 50 50 49 44 43 46 47 45 43 39 38
30 37 36 40 40 29 26 37 82 99 100 100 100 100 100 89 79 71 70 81 92 100 100 100 100 100 100 100 100 99 97 87 76 80 92 93 78 68 57 52 53 54 55 54 50 47 43 42 36
23 26 34 38 46 40 31 26 32 90 96 100 100 100 100 100 96 83 73 74 76 96 100 100 100 100 100 100 100 99 90 81 73 81 87 84 83 79 70 63 64 64 60 55 49 46 42 42 41
25 24 32 38 52 46 39 32 25 32 67 98 100 100 100 100 99 93 83 75 72 74 91 100 100 100 100 100 100 100 100 96 77 68 66 72 80 81 85 90 84 70 64 69 67 57 50 44 45
22 29 30 37 46 58 50 41 32 29 30 65 86 100 100 97 92 100 98 82 74 69 74 81 82 98 100 100 100 100 100 94 87 84 78 88 94 95 87 81 84 80 78 76 69 63 59 58 56
22 27 31 34 46 67 57 47 39 32 25 29 69 81 99 100 100 100 96 100 96 81 68 55 53 59 81 99 100 100 100 100 92 88 89 87 90 96 96 97 91 81 75 70 66 65 65 64 59
20 26 31 36 41 30 55 58 42 43 37 27 26 73 95 92 100 100 100 96 100 100 95 80 62 54 60 71 85 95 97 99 98 100 100 100 100 100 100 94 94 87 81 75 64 64 70 69 59
14 22 27 32 30 24 46 53 48 48 52 45 32 23 64 95 85 100 100 100 100 100 100 100 96 83 66 59 68 85 92 96 92 88 90 94 94 95 98 100 96 94 89 82 81 78 71 62 54
7 14 22 27 29 33 40 52 62 64 62 56 43 33 23 57 87 78 98 100 100 100 100 100 100 100 96 89 75 66 70 84 91 94 92 87 91 95 91 91 94 95 99 98 87 71 60 54 52
7 8 18 24 27 32 34 41 48 59 70 74 56 40 36 24 51 85 87 90 100 100 100 100 100 100 100 100 100 99 84 72 66 74 85 90 92 92 89 88 88 87 81 71 62 58 56 56 53
8 7 8 20 28 31 33 30 41 51 58 79 84 61 45 39 24 41 77 94 96 97 100 100 100 100 100 100 99 99 100 100 87 68 62 66 73 80 82 77 72 67 63 62 61 62 59 56 53
8 8 8 9 21 28 30 30 29 43 49 56 77 78 62 52 44 28 35 77 92 97 100 100 99 98 96 96 90 90 82 85 92 96 86 69 66 66 67 66 65 64 64 63 62 61 61 60 61
Wind_Speed
29 29 20 16 19 26 35 44 48 50 53 51 50 48 50 52 49 47 43 40 42 41 39 40 36 31 26 25 20 23 22 21 19 17 15 14 13 11 9 7 6 6 6 5 6 7 8 8 9
31 28 23 18 18 27 34 42 47 48 52 50 51 50 49 55 54 52 49 47 45 44 40 36 37 36 32 29 24 25 24 25 22 20 17 15 14 13 11 9 6 5 8 8 7 6 8 9 9
33 29 27 22 20 31 31 37 44 44 50 52 54 53 53 52 58 56 52 49 49 47 42 36 33 34 33 30 28 26 28 28 26 23 19 17 15 14 12 10 8 5 6 8 8 7 6 7 9
36 33 29 26 27 30 26 23 32 38 49 54 58 58 56 58 61 60 55 52 49 47 44 41 37 35 34 32 29 28 30 29 29 26 22 19 16 14 14 12 11 8 6 7 8 8 8 9 8
41 38 30 30 32 33 29 22 27 38 44 54 58 61 61 61 60 64 58 53 51 49 45 44 40 37 35 35 33 32 30 31 30 27 25 22 20 17 16 14 14 12 9 7 5 6 8 9 9
43 40 38 37 40 38 33 27 25 31 38 48 58 62 63 63 65 62 62 54 53 51 48 45 44 39 37 36 36 34 32 33 31 30 27 25 23 21 18 15 15 15 13 11 8 7 6 7 9
48 44 40 43 45 39 40 33 32 31 34 43 55 62 64 64 65 66 63 60 54 53 50 47 45 43 41 39 39 37 35 34 33 33 29 27 24 25 22 19 16 17 17 14 13 11 11 12 12
53 49 43 44 48 46 46 38 38 33 31 28 55 60 65 70 67 66 66 63 59 54 52 50 47 47 46 43 42 41 37 35 35 34 33 30 27 28 27 24 20 18 19 17 16 15 15 15 16
59 50 45 48 53 54 53 44 42 37 33 29 47 60 66 66 68 67 66 65 63 56 53 50 49 49 46 47 45 44 42 39 38 36 36 34 32 29 29 28 26 23 20 22 23 21 20 20 18
64 54 52 56 60 60 56 48 45 39 37 32 35 59 61 67 70 69 66 66 65 60 56 51 47 48 46 46 46 46 44 41 40 38 37 36 36 34 33 32 31 27 27 26 27 26 23 21 22
69 60 63 64 64 63 58 53 48 45 38 36 37 52 62 66 72 73 70 68 66 62 58 55 52 49 48 45 45 45 45 43 43 41 40 39 39 39 37 35 35 34 33 33 32 31 27 25 25
76 72 75 74 71 66 62 57 52 48 45 45 43 40 55 63 70 76 75 71 68 66 63 58 55 53 52 50 51 50 52 46 44 43 42 41 40 39 40 38 36 36 36 36 35 35 34 33 32
75 76 81 80 78 72 68 62 56 53 53 50 47 41 47 61 65 72 76 73 69 67 65 62 58 56 56 54 53 54 55 56 53 49 47 45 45 43 41 41 40 39 39 38 38 38 38 38 36
69 77 83 84 81 75 70 67 61 57 58 56 52 48 45 53 64 67 70 73 74 71 69 66 63 59 58 56 55 55 55 57 54 54 55 52 50 49 48 47 47 43 40 38 38 38 38 37 37
73 73 84 81 82 77 75 72 61 62 61 60 56 55 51 45 54 62 68 71 76 76 73 72 68 65 62 59 57 56 57 57 56 55 56 57 55 54 52 51 50 49 46 44 44 45 43 43 42
83 78 73 78 83 80 80 70 70 68 65 64 61 59 51 49 48 57 62 69 70 72 76 73 71 69 66 65 61 60 60 59 58 57 58 57 56 55 53 51 50 49 49 47 46 45 46 46 46
91 77 72 72 77 85 84 75 77 74 72 70 67 64 58 53 52 53 61 63 67 70 72 73 73 72 69 66 66 65 63 62 61 61 61 60 59 57 54 53 53 52 51 49 49 48 48 48 48
87 83 80 79 78 79 84 79 85 81 79 77 75 68 65 60 57 55 56 65 68 70 68 68 68 70 72 71 69 67 66 65 65 65 64 62 61 60 58 57 57 55 53 52 52 53 52 51 50
99 96 90 87 88 81 77 83 93 90 87 84 80 77 73 67 63 61 57 64 69 71 71 69 69 68 67 66 66 66 67 68 67 67 66 65 64 64 62 61 59 59 58 58 57 56 57 56 55
109 103 98 94 95 91 85 82 92 98 94 89 87 84 80 75 70 66 65 61 74 66 73 76 73 71 71 69 68 67 65 65 66 67 67 66 67 67 66 66 64 63 61 61 61 60 59 57 56
115 110 104 101 101 98 93 88 91 96 97 95 92 89 86 83 79 74 71 72 72 74 79 76 75 75 74 74 74 73 71 69 68 68 69 69 69 69 68 68 65 63 63 62 61 59 58 57 57
119 112 112 109 108 104 100 94 90 92 96 98 95 94 92 87 82 81 77 75 75 74 74 79 80 75 72 73 72 71 70 70 68 66 67 68 68 68 68 67 66 65 63 62 60 59 59 58 57
122 118 119 114 112 114 110 105 98 96 93 98 100 97 94 91 88 83 82 79 77 76 76 74 75 79 79 76 76 74 72 72 71 69 67 67 68 68 69 69 67 65 64 64 62 60 59 58 58
121 123 123 122 119 124 115 110 104 100 95 92 97 100 99 94 91 89 85 82 81 79 77 77 76 75 77 80 79 78 76 75 74 72 70 69 70 70 69 68 67 66 65 64 63 61 60 59 58
118 125 127 132 134 124 117 118 112 106 100 98 95 99 101 101 96 91 90 87 83 83 82 79 78 77 76 75 77 80 80 78 76 74 72 70 70 71 72 70 68 67 65 64 63 61 59 60 59
114 125 131 135 135 122 121 126 117 111 107 104 100 96 100 101 101 95 92 90 88 85 85 84 81 79 77 77 76 76 77 78 77 76 74 72 71 71 71 70 68 67 65 63 62 62 61 61 61
109 118 129 133 134 128 132 129 121 118 114 110 104 99 96 99 98 99 96 94 90 88 88 87 86 83 80 78 77 77 78 77 76 75 75 74 73 72 71 69 68 66 66 65 65 65 64 63 61
100 110 120 130 135 138 138 134 126 122 118 113 108 104 100 96 97 98 98 98 96 93 91 90 89 87 85 82 80 79 78 78 78 78 76 76 75 73 72 71 70 70 69 68 66 66 66 65 65
91 103 112 122 131 140 142 140 133 127 123 119 115 110 106 102 98 98 100 100 100 98 97 96 93 91 90 88 85 83 80 80 80 80 79 79 77 76 75 75 73 71 70 69 69 69 68 65 61
85 93 103 113 126 136 140 143 140 133 126 123 121 117 111 107 104 101 99 101 102 101 100 99 98 96 95 93 90 87 87 83 82 83 83 82 81 79 79 77 76 74 73 73 71 69 67 63 59
Wind_Direction
267 274 280 283 249 228 228 225 226 220 217 212 214 212 209 204 202 205 211 202 202 208 215 220 225 223 223 229 215 208 210 206 206 214 216 222 224 227 231 239 226 218 211 228 226 218 212 205 208
263 264 271 273 254 236 230 229 226 221 220 215 215 216 212 207 204 207 210 216 214 212 214 223 223 226 226 228 217 211 210 209 209 217 222 222 225 229 230 227 229 238 222 218 219 219 213 211 215
259 258 264 265 251 242 244 236 232 226 223 219 215 217 215 212 205 209 213 218 218 220 223 219 218 220 220 224 221 214 213 213 212 217 216 219 224 224 222 228 238 245 240 233 224 220 219 220 213
260 256 259 260 251 253 255 249 240 232 227 222 217 215 214 215 209 210 215 218 220 222 223 219 219 221 225 225 224 219 216 216 217 220 221 218 221 226 224 225 234 240 241 250 242 238 233 223 228
259 258 255 256 253 254 255 250 239 232 231 226 221 218 216 215 213 212 213 217 222 223 225 218 219 222 225 226 226 225 219 218 220 222 224 222 218 221 226 232 236 235 243 249 246 243 252 251 245
255 255 253 251 249 255 257 252 244 235 231 232 224 220 218 216 215 215 215 216 221 225 225 221 218 220 222 225 225 222 224 220 222 221 224 226 221 219 224 232 238 232 235 237 240 258 275 280 261
253 249 251 251 253 257 254 249 243 243 241 235 224 220 218 215 216 216 217 218 219 222 225 225 223 221 222 224 225 225 225 225 223 224 221 224 228 226 223 231 233 233 233 235 242 251 258 270 277
251 248 247 250 251 249 251 246 246 245 249 252 223 220 217 215 215 216 218 219 218 220 223 226 226 226 226 226 228 228 228 230 226 225 223 225 224 232 239 240 230 227 234 232 242 252 258 259 267
253 250 248 247 246 245 246 243 244 246 248 248 228 223 218 217 216 217 219 220 220 219 220 223 226 229 229 230 231 231 231 233 232 228 225 224 227 227 234 240 245 236 235 249 255 260 259 261 266
252 247 245 242 242 244 245 244 244 246 245 246 237 225 222 217 216 218 219 221 222 222 221 221 223 227 228 226 230 232 233 233 232 229 229 226 228 233 232 236 241 245 254 255 261 260 260 261 268
245 243 240 240 241 242 245 243 244 243 243 239 235 227 223 220 218 218 221 220 222 223 224 224 222 222 226 221 223 229 236 233 231 231 231 232 233 233 234 236 238 240 247 253 258 262 261 261 263
240 238 239 237 237 238 240 241 240 241 238 235 237 235 229 223 221 219 219 221 221 221 222 224 227 225 223 222 221 223 225 229 233 235 234 236 238 238 237 238 239 242 247 251 256 261 264 264 265
240 237 237 237 238 237 238 239 237 238 238 236 238 235 232 226 224 224 221 222 223 224 224 226 227 228 228 227 223 225 227 225 225 228 233 236 237 238 239 241 242 244 247 252 257 259 262 263 264
238 235 236 235 236 235 237 239 237 237 238 237 235 232 229 229 225 224 224 223 225 225 225 225 228 229 229 230 230 229 231 231 231 234 234 236 236 238 243 244 248 248 244 245 247 253 257 256 258
237 235 235 236 236 235 234 235 234 235 238 237 234 234 230 228 228 227 225 224 225 226 226 226 227 229 231 231 232 233 236 237 235 234 237 239 239 242 245 248 250 254 256 257 257 261 261 262 266
238 234 234 235 234 233 234 231 230 232 233 234 234 234 229 226 223 226 226 225 226 227 229 229 229 230 231 232 233 235 236 238 239 239 239 241 243 244 245 249 250 252 254 256 257 260 264 267 270
236 236 235 235 234 232 232 227 228 229 230 230 230 230 228 223 223 222 224 225 226 228 230 232 232 232 232 234 234 236 238 239 239 241 241 242 244 247 248 249 251 252 253 255 258 261 263 265 267
236 234 234 234 234 231 230 224 228 226 227 228 228 227 224 222 220 220 220 223 225 225 227 230 233 235 234 235 236 238 239 240 241 242 243 244 245 247 249 251 252 253 255 256 257 259 262 264 266
228 230 227 228 231 229 228 223 226 225 225 225 225 227 225 221 220 219 217 219 224 225 225 227 229 230 231 232 233 235 238 241 242 243 246 246 247 249 250 253 255 257 259 261 261 261 263 265 267
225 225 224 224 229 229 226 221 223 225 223 224 225 224 226 222 219 216 217 217 223 219 224 224 225 226 228 231 233 235 237 240 243 245 246 247 249 250 251 253 255 258 259 261 262 264 265 266 267
224 223 223 222 225 227 226 224 223 224 223 223 224 224 225 225 221 219 216 217 222 222 224 225 226 227 230 233 236 239 241 242 243 242 242 245 248 251 253 255 257 258 260 262 263 265 265 267 267
224 222 222 221 222 226 226 224 224 226 225 222 223 225 225 225 225 222 221 219 220 225 227 227 227 228 230 232 232 234 237 239 240 243 245 245 245 248 250 252 254 256 258 259 261 263 264 266 267
220 217 219 221 221 225 224 223 222 223 224 224 223 223 225 226 226 225 224 223 223 223 227 229 228 228 228 230 232 235 237 237 240 243 245 243 244 245 247 250 252 253 254 256 258 260 263 264 264
219 217 216 218 219 222 224 224 223 224 224 224 224 225 223 225 227 228 226 226 227 228 228 229 230 230 229 229 231 233 236 239 242 243 243 242 242 245 247 248 250 251 253 255 258 261 262 263 264
222 218 215 216 218 218 223 225 223 223 224 224 224 223 225 223 224 227 229 227 227 230 231 232 232 233 233 232 232 233 236 238 239 240 242 242 243 244 246 249 250 252 254 256 258 259 261 263 265
222 220 218 217 219 218 221 224 223 223 223 224 224 225 224 225 225 224 226 228 227 228 232 233 233 233 235 236 236 236 237 239 240 240 241 243 244 245 246 249 251 253 255 257 259 261 263 266 268
223 221 221 219 218 216 218 222 222 223 223 224 225 225 226 226 226 226 225 226 227 229 230 232 234 234 234 235 237 239 240 241 241 242 243 243 244 245 246 248 250 252 255 257 259 262 264 266 268
221 221 220 220 219 215 218 218 219 222 222 225 226 226 226 227 227 227 228 229 230 230 230 231 232 234 234 235 236 238 239 242 243 243 243 244 245 246 247 248 250 252 254 257 259 261 264 267 269
221 220 220 219 219 218 217 218 218 221 222 221 224 226 225 226 228 227 227 229 231 232 232 231 231 232 234 235 237 238 239 241 243 244 245 245 246 247 248 250 251 252 254 256 258 261 264 265 267
221 220 220 220 220 221 219 218 219 217 221 224 224 225 225 225 227 229 228 228 229 231 233 234 234 233 234 236 239 241 242 243 246 244 244 245 246 247 247 248 250 252 253 256 258 259 261 263 264